#datetime,building,power
2022-05-25T00:00:00,sdl,12.61
2022-05-25T00:01:00,sdl,12.68
2022-05-25T00:02:00,sdl,12.66
2022-05-25T00:03:00,sdl,12.62
2022-05-25T00:04:00,sdl,12.55
2022-05-25T00:05:00,sdl,12.47
2022-05-25T00:06:00,sdl,12.44
2022-05-25T00:07:00,sdl,12.43
2022-05-25T00:08:00,sdl,12.39
2022-05-25T00:09:00,sdl,12.37
2022-05-25T00:10:00,sdl,12.37
2022-05-25T00:11:00,sdl,10.17
2022-05-25T00:12:00,sdl,10.17
2022-05-25T00:13:00,sdl,10.23
2022-05-25T00:14:00,sdl,10.30
2022-05-25T00:15:00,sdl,10.31
2022-05-25T00:16:00,sdl,11.61
2022-05-25T00:17:00,sdl,16.70
2022-05-25T00:18:00,sdl,17.46
2022-05-25T00:19:00,sdl,17.81
2022-05-25T00:20:00,sdl,18.03
2022-05-25T00:21:00,sdl,18.09
2022-05-25T00:22:00,sdl,18.25
2022-05-25T00:23:00,sdl,18.78
2022-05-25T00:24:00,sdl,19.26
2022-05-25T00:25:00,sdl,19.21
2022-05-25T00:26:00,sdl,18.87
2022-05-25T00:27:00,sdl,18.85
2022-05-25T00:28:00,sdl,18.88
2022-05-25T00:29:00,sdl,18.81
2022-05-25T00:30:00,sdl,18.82
2022-05-25T00:31:00,sdl,18.80
2022-05-25T00:32:00,sdl,18.81
2022-05-25T00:33:00,sdl,18.82
2022-05-25T00:34:00,sdl,18.77
2022-05-25T00:35:00,sdl,18.81
2022-05-25T00:36:00,sdl,19.81
2022-05-25T00:37:00,sdl,18.74
2022-05-25T00:38:00,sdl,18.66
2022-05-25T00:39:00,sdl,18.67
2022-05-25T00:40:00,sdl,18.58
2022-05-25T00:41:00,sdl,18.59
2022-05-25T00:42:00,sdl,18.56
2022-05-25T00:43:00,sdl,18.56
2022-05-25T00:44:00,sdl,18.62
2022-05-25T00:45:00,sdl,20.88
2022-05-25T00:46:00,sdl,20.88
2022-05-25T00:47:00,sdl,21.01
2022-05-25T00:48:00,sdl,20.89
2022-05-25T00:49:00,sdl,20.99
2022-05-25T00:50:00,sdl,20.99
2022-05-25T00:51:00,sdl,22.00
2022-05-25T00:52:00,sdl,21.00
2022-05-25T00:53:00,sdl,20.90
2022-05-25T00:54:00,sdl,20.89
2022-05-25T00:55:00,sdl,20.90
2022-05-25T00:56:00,sdl,20.82
2022-05-25T00:57:00,sdl,21.21
2022-05-25T00:58:00,sdl,21.19
2022-05-25T00:59:00,sdl,19.10
2022-05-25T01:00:00,sdl,18.80
2022-05-25T01:01:00,sdl,18.53
2022-05-25T01:02:00,sdl,18.50
2022-05-25T01:03:00,sdl,19.28
2022-05-25T01:04:00,sdl,19.28
2022-05-25T01:05:00,sdl,19.28
2022-05-25T01:06:00,sdl,19.23
2022-05-25T01:07:00,sdl,19.18
2022-05-25T01:08:00,sdl,19.16
2022-05-25T01:09:00,sdl,19.14
2022-05-25T01:10:00,sdl,19.12
2022-05-25T01:11:00,sdl,19.23
2022-05-25T01:12:00,sdl,18.31
2022-05-25T01:13:00,sdl,18.36
2022-05-25T01:14:00,sdl,18.32
2022-05-25T01:15:00,sdl,18.56
2022-05-25T01:16:00,sdl,15.15
2022-05-25T01:17:00,sdl,9.80
2022-05-25T01:18:00,sdl,9.79
2022-05-25T01:19:00,sdl,9.73
2022-05-25T01:20:00,sdl,9.73
2022-05-25T01:21:00,sdl,10.81
2022-05-25T01:22:00,sdl,9.77
2022-05-25T01:23:00,sdl,9.87
2022-05-25T01:24:00,sdl,9.83
2022-05-25T01:25:00,sdl,9.84
2022-05-25T01:26:00,sdl,9.78
2022-05-25T01:27:00,sdl,9.79
2022-05-25T01:28:00,sdl,9.72
2022-05-25T01:29:00,sdl,11.96
2022-05-25T01:30:00,sdl,11.97
2022-05-25T01:31:00,sdl,12.21
2022-05-25T01:32:00,sdl,12.58
2022-05-25T01:33:00,sdl,12.59
2022-05-25T01:34:00,sdl,13.72
2022-05-25T01:35:00,sdl,12.16
2022-05-25T01:36:00,sdl,13.16
2022-05-25T01:37:00,sdl,12.24
2022-05-25T01:38:00,sdl,12.29
2022-05-25T01:39:00,sdl,9.89
2022-05-25T01:40:00,sdl,9.86
2022-05-25T01:41:00,sdl,9.81
2022-05-25T01:42:00,sdl,9.87
2022-05-25T01:43:00,sdl,9.66
2022-05-25T01:44:00,sdl,9.77
2022-05-25T01:45:00,sdl,9.68
2022-05-25T01:46:00,sdl,9.75
2022-05-25T01:47:00,sdl,9.79
2022-05-25T01:48:00,sdl,9.83
2022-05-25T01:49:00,sdl,9.79
2022-05-25T01:50:00,sdl,9.82
2022-05-25T01:51:00,sdl,9.79
2022-05-25T01:52:00,sdl,9.84
2022-05-25T01:53:00,sdl,9.76
2022-05-25T01:54:00,sdl,12.00
2022-05-25T01:55:00,sdl,11.99
2022-05-25T01:56:00,sdl,12.00
2022-05-25T01:57:00,sdl,12.00
2022-05-25T01:58:00,sdl,11.93
2022-05-25T01:59:00,sdl,11.90
2022-05-25T02:00:00,sdl,11.99
2022-05-25T02:01:00,sdl,16.53
2022-05-25T02:02:00,sdl,16.39
2022-05-25T02:03:00,sdl,16.51
2022-05-25T02:04:00,sdl,16.49
2022-05-25T02:05:00,sdl,16.34
2022-05-25T02:06:00,sdl,16.39
2022-05-25T02:07:00,sdl,16.40
2022-05-25T02:08:00,sdl,14.18
2022-05-25T02:09:00,sdl,14.22
2022-05-25T02:10:00,sdl,14.55
2022-05-25T02:11:00,sdl,14.57
2022-05-25T02:12:00,sdl,14.29
2022-05-25T02:13:00,sdl,14.30
2022-05-25T02:14:00,sdl,14.33
2022-05-25T02:15:00,sdl,14.24
2022-05-25T02:16:00,sdl,15.36
2022-05-25T02:17:00,sdl,14.28
2022-05-25T02:18:00,sdl,14.31
2022-05-25T02:19:00,sdl,14.37
2022-05-25T02:20:00,sdl,14.40
2022-05-25T02:21:00,sdl,15.43
2022-05-25T02:22:00,sdl,14.26
2022-05-25T02:23:00,sdl,14.32
2022-05-25T02:24:00,sdl,14.35
2022-05-25T02:25:00,sdl,14.91
2022-05-25T02:26:00,sdl,14.47
2022-05-25T02:27:00,sdl,15.47
2022-05-25T02:28:00,sdl,14.47
2022-05-25T02:29:00,sdl,14.37
2022-05-25T02:30:00,sdl,14.41
2022-05-25T02:31:00,sdl,14.37
2022-05-25T02:32:00,sdl,14.46
2022-05-25T02:33:00,sdl,14.41
2022-05-25T02:34:00,sdl,14.38
2022-05-25T02:35:00,sdl,14.52
2022-05-25T02:36:00,sdl,14.53
2022-05-25T02:37:00,sdl,14.50
2022-05-25T02:38:00,sdl,16.74
2022-05-25T02:39:00,sdl,16.86
2022-05-25T02:40:00,sdl,16.83
2022-05-25T02:41:00,sdl,16.76
2022-05-25T02:42:00,sdl,17.18
2022-05-25T02:43:00,sdl,17.09
2022-05-25T02:44:00,sdl,16.70
2022-05-25T02:45:00,sdl,16.77
2022-05-25T02:46:00,sdl,16.70
2022-05-25T02:47:00,sdl,16.66
2022-05-25T02:48:00,sdl,16.77
2022-05-25T02:49:00,sdl,17.88
2022-05-25T02:50:00,sdl,16.81
2022-05-25T02:51:00,sdl,16.85
2022-05-25T02:52:00,sdl,16.73
2022-05-25T02:53:00,sdl,16.69
2022-05-25T02:54:00,sdl,14.48
2022-05-25T02:55:00,sdl,14.49
2022-05-25T02:56:00,sdl,14.53
2022-05-25T02:57:00,sdl,14.43
2022-05-25T02:58:00,sdl,14.49
2022-05-25T02:59:00,sdl,14.52
2022-05-25T03:00:00,sdl,14.61
2022-05-25T03:01:00,sdl,14.50
2022-05-25T03:02:00,sdl,14.58
2022-05-25T03:03:00,sdl,14.54
2022-05-25T03:04:00,sdl,14.57
2022-05-25T03:05:00,sdl,14.51
2022-05-25T03:06:00,sdl,14.56
2022-05-25T03:07:00,sdl,14.37
2022-05-25T03:08:00,sdl,14.26
2022-05-25T03:09:00,sdl,14.23
2022-05-25T03:10:00,sdl,14.25
2022-05-25T03:11:00,sdl,14.23
2022-05-25T03:12:00,sdl,14.33
2022-05-25T03:13:00,sdl,14.48
2022-05-25T03:14:00,sdl,14.41
2022-05-25T03:15:00,sdl,14.27
2022-05-25T03:16:00,sdl,14.23
2022-05-25T03:17:00,sdl,14.17
2022-05-25T03:18:00,sdl,14.15
2022-05-25T03:19:00,sdl,14.54
2022-05-25T03:20:00,sdl,15.23
2022-05-25T03:21:00,sdl,14.18
2022-05-25T03:22:00,sdl,14.08
2022-05-25T03:23:00,sdl,14.05
2022-05-25T03:24:00,sdl,14.35
2022-05-25T03:25:00,sdl,14.25
2022-05-25T03:26:00,sdl,14.27
2022-05-25T03:27:00,sdl,14.27
2022-05-25T03:28:00,sdl,14.19
2022-05-25T03:29:00,sdl,16.36
2022-05-25T03:30:00,sdl,16.41
2022-05-25T03:31:00,sdl,16.43
2022-05-25T03:32:00,sdl,17.41
2022-05-25T03:33:00,sdl,16.44
2022-05-25T03:34:00,sdl,16.39
2022-05-25T03:35:00,sdl,16.32
2022-05-25T03:36:00,sdl,16.50
2022-05-25T03:37:00,sdl,16.50
2022-05-25T03:38:00,sdl,16.58
2022-05-25T03:39:00,sdl,16.57
2022-05-25T03:40:00,sdl,16.62
2022-05-25T03:41:00,sdl,16.55
2022-05-25T03:42:00,sdl,16.50
2022-05-25T03:43:00,sdl,16.46
2022-05-25T03:44:00,sdl,14.25
2022-05-25T03:45:00,sdl,14.25
2022-05-25T03:46:00,sdl,14.37
2022-05-25T03:47:00,sdl,14.20
2022-05-25T03:48:00,sdl,14.26
2022-05-25T03:49:00,sdl,14.15
2022-05-25T03:50:00,sdl,14.09
2022-05-25T03:51:00,sdl,14.09
2022-05-25T03:52:00,sdl,14.38
2022-05-25T03:53:00,sdl,14.19
2022-05-25T03:54:00,sdl,15.30
2022-05-25T03:55:00,sdl,14.69
2022-05-25T03:56:00,sdl,14.69
2022-05-25T03:57:00,sdl,14.24
2022-05-25T03:58:00,sdl,14.26
2022-05-25T03:59:00,sdl,14.19
2022-05-25T04:00:00,sdl,14.27
2022-05-25T04:01:00,sdl,14.28
2022-05-25T04:02:00,sdl,14.46
2022-05-25T04:03:00,sdl,14.35
2022-05-25T04:04:00,sdl,14.34
2022-05-25T04:05:00,sdl,14.42
2022-05-25T04:06:00,sdl,16.69
2022-05-25T04:07:00,sdl,16.55
2022-05-25T04:08:00,sdl,16.60
2022-05-25T04:09:00,sdl,16.63
2022-05-25T04:10:00,sdl,16.65
2022-05-25T04:11:00,sdl,16.62
2022-05-25T04:12:00,sdl,16.85
2022-05-25T04:13:00,sdl,16.78
2022-05-25T04:14:00,sdl,16.80
2022-05-25T04:15:00,sdl,15.62
2022-05-25T04:16:00,sdl,14.49
2022-05-25T04:17:00,sdl,14.45
2022-05-25T04:18:00,sdl,14.46
2022-05-25T04:19:00,sdl,14.35
2022-05-25T04:20:00,sdl,14.30
2022-05-25T04:21:00,sdl,14.29
2022-05-25T04:22:00,sdl,14.27
2022-05-25T04:23:00,sdl,14.25
2022-05-25T04:24:00,sdl,14.30
2022-05-25T04:25:00,sdl,14.35
2022-05-25T04:26:00,sdl,15.46
2022-05-25T04:27:00,sdl,14.34
2022-05-25T04:28:00,sdl,14.32
2022-05-25T04:29:00,sdl,14.36
2022-05-25T04:30:00,sdl,14.20
2022-05-25T04:31:00,sdl,14.71
2022-05-25T04:32:00,sdl,17.00
2022-05-25T04:33:00,sdl,16.62
2022-05-25T04:34:00,sdl,16.64
2022-05-25T04:35:00,sdl,16.73
2022-05-25T04:36:00,sdl,16.72
2022-05-25T04:37:00,sdl,17.75
2022-05-25T04:38:00,sdl,16.71
2022-05-25T04:39:00,sdl,16.66
2022-05-25T04:40:00,sdl,16.59
2022-05-25T04:41:00,sdl,16.71
2022-05-25T04:42:00,sdl,16.59
2022-05-25T04:43:00,sdl,16.63
2022-05-25T04:44:00,sdl,16.60
2022-05-25T04:45:00,sdl,16.68
2022-05-25T04:46:00,sdl,16.66
2022-05-25T04:47:00,sdl,15.70
2022-05-25T04:48:00,sdl,14.58
2022-05-25T04:49:00,sdl,14.43
2022-05-25T04:50:00,sdl,14.47
2022-05-25T04:51:00,sdl,14.46
2022-05-25T04:52:00,sdl,14.52
2022-05-25T04:53:00,sdl,14.33
2022-05-25T04:54:00,sdl,14.30
2022-05-25T04:55:00,sdl,14.24
2022-05-25T04:56:00,sdl,14.23
2022-05-25T04:57:00,sdl,14.25
2022-05-25T04:58:00,sdl,14.32
2022-05-25T04:59:00,sdl,14.23
2022-05-25T05:00:00,sdl,14.32
2022-05-25T05:01:00,sdl,14.16
2022-05-25T05:02:00,sdl,14.19
2022-05-25T05:03:00,sdl,14.14
2022-05-25T05:04:00,sdl,14.15
2022-05-25T05:05:00,sdl,14.19
2022-05-25T05:06:00,sdl,14.19
2022-05-25T05:07:00,sdl,14.64
2022-05-25T05:08:00,sdl,14.65
2022-05-25T05:09:00,sdl,15.74
2022-05-25T05:10:00,sdl,14.11
2022-05-25T05:11:00,sdl,14.24
2022-05-25T05:12:00,sdl,14.22
2022-05-25T05:13:00,sdl,14.33
2022-05-25T05:14:00,sdl,14.33
2022-05-25T05:15:00,sdl,14.35
2022-05-25T05:16:00,sdl,14.27
2022-05-25T05:17:00,sdl,14.34
2022-05-25T05:18:00,sdl,14.30
2022-05-25T05:19:00,sdl,14.37
2022-05-25T05:20:00,sdl,14.31
2022-05-25T05:21:00,sdl,16.57
2022-05-25T05:22:00,sdl,16.62
2022-05-25T05:23:00,sdl,16.62
2022-05-25T05:24:00,sdl,16.60
2022-05-25T05:25:00,sdl,16.60
2022-05-25T05:26:00,sdl,16.56
2022-05-25T05:27:00,sdl,16.63
2022-05-25T05:28:00,sdl,16.66
2022-05-25T05:29:00,sdl,16.64
2022-05-25T05:30:00,sdl,16.56
2022-05-25T05:31:00,sdl,17.58
2022-05-25T05:32:00,sdl,16.55
2022-05-25T05:33:00,sdl,16.57
2022-05-25T05:34:00,sdl,16.49
2022-05-25T05:35:00,sdl,16.47
2022-05-25T05:36:00,sdl,14.29
2022-05-25T05:37:00,sdl,14.33
2022-05-25T05:38:00,sdl,14.40
2022-05-25T05:39:00,sdl,14.32
2022-05-25T05:40:00,sdl,14.37
2022-05-25T05:41:00,sdl,15.26
2022-05-25T05:42:00,sdl,14.21
2022-05-25T05:43:00,sdl,14.06
2022-05-25T05:44:00,sdl,14.04
2022-05-25T05:45:00,sdl,14.10
2022-05-25T05:46:00,sdl,14.05
2022-05-25T05:47:00,sdl,14.47
2022-05-25T05:48:00,sdl,14.54
2022-05-25T05:49:00,sdl,14.05
2022-05-25T05:50:00,sdl,14.22
2022-05-25T05:51:00,sdl,14.16
2022-05-25T05:52:00,sdl,15.16
2022-05-25T05:53:00,sdl,14.19
2022-05-25T05:54:00,sdl,14.14
2022-05-25T05:55:00,sdl,14.13
2022-05-25T05:56:00,sdl,14.20
2022-05-25T05:57:00,sdl,14.18
2022-05-25T05:58:00,sdl,14.04
2022-05-25T05:59:00,sdl,14.01
2022-05-25T06:00:00,sdl,14.08
2022-05-25T06:01:00,sdl,14.23
2022-05-25T06:02:00,sdl,14.30
2022-05-25T06:03:00,sdl,15.33
2022-05-25T06:04:00,sdl,15.52
2022-05-25T06:05:00,sdl,14.25
2022-05-25T06:06:00,sdl,14.24
2022-05-25T06:07:00,sdl,14.27
2022-05-25T06:08:00,sdl,14.18
2022-05-25T06:09:00,sdl,14.22
2022-05-25T06:10:00,sdl,16.37
2022-05-25T06:11:00,sdl,16.43
2022-05-25T06:12:00,sdl,16.59
2022-05-25T06:13:00,sdl,16.71
2022-05-25T06:14:00,sdl,16.62
2022-05-25T06:15:00,sdl,16.62
2022-05-25T06:16:00,sdl,16.34
2022-05-25T06:17:00,sdl,16.41
2022-05-25T06:18:00,sdl,16.35
2022-05-25T06:19:00,sdl,16.31
2022-05-25T06:20:00,sdl,16.31
2022-05-25T06:21:00,sdl,16.63
2022-05-25T06:22:00,sdl,14.44
2022-05-25T06:23:00,sdl,14.20
2022-05-25T06:24:00,sdl,14.22
2022-05-25T06:25:00,sdl,14.22
2022-05-25T06:26:00,sdl,14.29
2022-05-25T06:27:00,sdl,14.24
2022-05-25T06:28:00,sdl,14.24
2022-05-25T06:29:00,sdl,14.23
2022-05-25T06:30:00,sdl,14.03
2022-05-25T06:31:00,sdl,14.12
2022-05-25T06:32:00,sdl,14.02
2022-05-25T06:33:00,sdl,14.07
2022-05-25T06:34:00,sdl,14.11
2022-05-25T06:35:00,sdl,15.13
2022-05-25T06:36:00,sdl,14.02
2022-05-25T06:37:00,sdl,16.35
2022-05-25T06:38:00,sdl,16.34
2022-05-25T06:39:00,sdl,16.28
2022-05-25T06:40:00,sdl,16.29
2022-05-25T06:41:00,sdl,16.23
2022-05-25T06:42:00,sdl,16.07
2022-05-25T06:43:00,sdl,15.80
2022-05-25T06:44:00,sdl,15.87
2022-05-25T06:45:00,sdl,15.73
2022-05-25T06:46:00,sdl,15.61
2022-05-25T06:47:00,sdl,15.60
2022-05-25T06:48:00,sdl,13.35
2022-05-25T06:49:00,sdl,13.60
2022-05-25T06:50:00,sdl,13.53
2022-05-25T06:51:00,sdl,13.45
2022-05-25T06:52:00,sdl,13.49
2022-05-25T06:53:00,sdl,13.45
2022-05-25T06:54:00,sdl,13.77
2022-05-25T06:55:00,sdl,13.82
2022-05-25T06:56:00,sdl,13.47
2022-05-25T06:57:00,sdl,13.48
2022-05-25T06:58:00,sdl,13.53
2022-05-25T06:59:00,sdl,13.50
2022-05-25T07:00:00,sdl,13.55
2022-05-25T07:01:00,sdl,13.69
2022-05-25T07:02:00,sdl,14.17
2022-05-25T07:03:00,sdl,20.22
2022-05-25T07:04:00,sdl,20.88
2022-05-25T07:05:00,sdl,20.86
2022-05-25T07:06:00,sdl,20.96
2022-05-25T07:07:00,sdl,20.92
2022-05-25T07:08:00,sdl,20.92
2022-05-25T07:09:00,sdl,20.75
2022-05-25T07:10:00,sdl,20.79
2022-05-25T07:11:00,sdl,21.13
2022-05-25T07:12:00,sdl,21.77
2022-05-25T07:13:00,sdl,23.13
2022-05-25T07:14:00,sdl,23.18
2022-05-25T07:15:00,sdl,23.30
2022-05-25T07:16:00,sdl,23.38
2022-05-25T07:17:00,sdl,23.56
2022-05-25T07:18:00,sdl,24.47
2022-05-25T07:19:00,sdl,24.05
2022-05-25T07:20:00,sdl,23.93
2022-05-25T07:21:00,sdl,24.23
2022-05-25T07:22:00,sdl,24.24
2022-05-25T07:23:00,sdl,24.07
2022-05-25T07:24:00,sdl,24.58
2022-05-25T07:25:00,sdl,24.00
2022-05-25T07:26:00,sdl,24.47
2022-05-25T07:27:00,sdl,24.25
2022-05-25T07:28:00,sdl,24.05
2022-05-25T07:29:00,sdl,25.18
2022-05-25T07:30:00,sdl,21.79
2022-05-25T07:31:00,sdl,21.80
2022-05-25T07:32:00,sdl,22.50
2022-05-25T07:33:00,sdl,22.93
2022-05-25T07:34:00,sdl,22.95
2022-05-25T07:35:00,sdl,22.68
2022-05-25T07:36:00,sdl,22.66
2022-05-25T07:37:00,sdl,22.75
2022-05-25T07:38:00,sdl,22.96
2022-05-25T07:39:00,sdl,23.07
2022-05-25T07:40:00,sdl,24.25
2022-05-25T07:41:00,sdl,23.43
2022-05-25T07:42:00,sdl,23.45
2022-05-25T07:43:00,sdl,36.76
2022-05-25T07:44:00,sdl,36.73
2022-05-25T07:45:00,sdl,36.66
2022-05-25T07:46:00,sdl,36.61
2022-05-25T07:47:00,sdl,44.34
2022-05-25T07:48:00,sdl,45.10
2022-05-25T07:49:00,sdl,45.60
2022-05-25T07:50:00,sdl,45.69
2022-05-25T07:51:00,sdl,45.89
2022-05-25T07:52:00,sdl,37.68
2022-05-25T07:53:00,sdl,38.08
2022-05-25T07:54:00,sdl,22.03
2022-05-25T07:55:00,sdl,22.02
2022-05-25T07:56:00,sdl,22.07
2022-05-25T07:57:00,sdl,21.95
2022-05-25T07:58:00,sdl,22.36
2022-05-25T07:59:00,sdl,22.19
2022-05-25T08:00:00,sdl,21.71
2022-05-25T08:01:00,sdl,22.08
2022-05-25T08:02:00,sdl,22.07
2022-05-25T08:03:00,sdl,22.15
2022-05-25T08:04:00,sdl,24.31
2022-05-25T08:05:00,sdl,25.34
2022-05-25T08:06:00,sdl,24.15
2022-05-25T08:07:00,sdl,24.14
2022-05-25T08:08:00,sdl,24.11
2022-05-25T08:09:00,sdl,23.97
2022-05-25T08:10:00,sdl,24.03
2022-05-25T08:11:00,sdl,23.88
2022-05-25T08:12:00,sdl,24.02
2022-05-25T08:13:00,sdl,24.01
2022-05-25T08:14:00,sdl,24.00
2022-05-25T08:15:00,sdl,24.16
2022-05-25T08:16:00,sdl,24.07
2022-05-25T08:17:00,sdl,24.08
2022-05-25T08:18:00,sdl,24.00
2022-05-25T08:19:00,sdl,21.80
2022-05-25T08:20:00,sdl,21.88
2022-05-25T08:21:00,sdl,21.76
2022-05-25T08:22:00,sdl,21.80
2022-05-25T08:23:00,sdl,21.73
2022-05-25T08:24:00,sdl,22.01
2022-05-25T08:25:00,sdl,21.96
2022-05-25T08:26:00,sdl,24.28
2022-05-25T08:27:00,sdl,22.09
2022-05-25T08:28:00,sdl,21.91
2022-05-25T08:29:00,sdl,22.31
2022-05-25T08:30:00,sdl,21.93
2022-05-25T08:31:00,sdl,21.91
2022-05-25T08:32:00,sdl,21.89
2022-05-25T08:33:00,sdl,22.07
2022-05-25T08:34:00,sdl,21.92
2022-05-25T08:35:00,sdl,21.98
2022-05-25T08:36:00,sdl,22.06
2022-05-25T08:37:00,sdl,23.05
2022-05-25T08:38:00,sdl,22.11
2022-05-25T08:39:00,sdl,24.68
2022-05-25T08:40:00,sdl,25.11
2022-05-25T08:41:00,sdl,24.67
2022-05-25T08:42:00,sdl,24.71
2022-05-25T08:43:00,sdl,24.88
2022-05-25T08:44:00,sdl,24.86
2022-05-25T08:45:00,sdl,24.59
2022-05-25T08:46:00,sdl,24.60
2022-05-25T08:47:00,sdl,24.71
2022-05-25T08:48:00,sdl,24.79
2022-05-25T08:49:00,sdl,22.74
2022-05-25T08:50:00,sdl,22.66
2022-05-25T08:51:00,sdl,22.61
2022-05-25T08:52:00,sdl,22.73
2022-05-25T08:53:00,sdl,22.81
2022-05-25T08:54:00,sdl,22.92
2022-05-25T08:55:00,sdl,22.95
2022-05-25T08:56:00,sdl,23.09
2022-05-25T08:57:00,sdl,22.93
2022-05-25T08:58:00,sdl,22.89
2022-05-25T08:59:00,sdl,24.64
2022-05-25T09:00:00,sdl,23.38
2022-05-25T09:01:00,sdl,24.40
2022-05-25T09:02:00,sdl,24.68
2022-05-25T09:03:00,sdl,24.73
2022-05-25T09:04:00,sdl,24.66
2022-05-25T09:05:00,sdl,27.10
2022-05-25T09:06:00,sdl,27.52
2022-05-25T09:07:00,sdl,25.55
2022-05-25T09:08:00,sdl,25.67
2022-05-25T09:09:00,sdl,27.23
2022-05-25T09:10:00,sdl,27.12
2022-05-25T09:11:00,sdl,27.13
2022-05-25T09:12:00,sdl,27.41
2022-05-25T09:13:00,sdl,29.10
2022-05-25T09:14:00,sdl,29.19
2022-05-25T09:15:00,sdl,27.35
2022-05-25T09:16:00,sdl,25.63
2022-05-25T09:17:00,sdl,25.50
2022-05-25T09:18:00,sdl,26.54
2022-05-25T09:19:00,sdl,26.71
2022-05-25T09:20:00,sdl,27.24
2022-05-25T09:21:00,sdl,27.46
2022-05-25T09:22:00,sdl,29.37
2022-05-25T09:23:00,sdl,26.35
2022-05-25T09:24:00,sdl,25.94
2022-05-25T09:25:00,sdl,24.12
2022-05-25T09:26:00,sdl,25.54
2022-05-25T09:27:00,sdl,25.41
2022-05-25T09:28:00,sdl,25.52
2022-05-25T09:29:00,sdl,25.19
2022-05-25T09:30:00,sdl,23.66
2022-05-25T09:31:00,sdl,25.02
2022-05-25T09:32:00,sdl,24.74
2022-05-25T09:33:00,sdl,25.84
2022-05-25T09:34:00,sdl,24.79
2022-05-25T09:35:00,sdl,25.60
2022-05-25T09:36:00,sdl,26.47
2022-05-25T09:37:00,sdl,26.30
2022-05-25T09:38:00,sdl,26.59
2022-05-25T09:39:00,sdl,26.89
2022-05-25T09:40:00,sdl,24.93
2022-05-25T09:41:00,sdl,26.55
2022-05-25T09:42:00,sdl,26.45
2022-05-25T09:43:00,sdl,26.47
2022-05-25T09:44:00,sdl,26.63
2022-05-25T09:45:00,sdl,26.44
2022-05-25T09:46:00,sdl,23.39
2022-05-25T09:47:00,sdl,23.36
2022-05-25T09:48:00,sdl,23.36
2022-05-25T09:49:00,sdl,23.31
2022-05-25T09:50:00,sdl,23.37
2022-05-25T09:51:00,sdl,24.86
2022-05-25T09:52:00,sdl,24.92
2022-05-25T09:53:00,sdl,25.24
2022-05-25T09:54:00,sdl,27.50
2022-05-25T09:55:00,sdl,28.54
2022-05-25T09:56:00,sdl,27.73
2022-05-25T09:57:00,sdl,25.72
2022-05-25T09:58:00,sdl,27.29
2022-05-25T09:59:00,sdl,27.39
2022-05-25T10:00:00,sdl,27.66
2022-05-25T10:01:00,sdl,27.68
2022-05-25T10:02:00,sdl,27.89
2022-05-25T10:03:00,sdl,27.69
2022-05-25T10:04:00,sdl,27.69
2022-05-25T10:05:00,sdl,28.64
2022-05-25T10:06:00,sdl,27.53
2022-05-25T10:07:00,sdl,27.60
2022-05-25T10:08:00,sdl,25.86
2022-05-25T10:09:00,sdl,25.92
2022-05-25T10:10:00,sdl,23.66
2022-05-25T10:11:00,sdl,23.71
2022-05-25T10:12:00,sdl,29.01
2022-05-25T10:13:00,sdl,27.47
2022-05-25T10:14:00,sdl,27.50
2022-05-25T10:15:00,sdl,27.29
2022-05-25T10:16:00,sdl,26.71
2022-05-25T10:17:00,sdl,27.09
2022-05-25T10:18:00,sdl,28.36
2022-05-25T10:19:00,sdl,28.76
2022-05-25T10:20:00,sdl,28.32
2022-05-25T10:21:00,sdl,40.03
2022-05-25T10:22:00,sdl,41.86
2022-05-25T10:23:00,sdl,42.39
2022-05-25T10:24:00,sdl,41.36
2022-05-25T10:25:00,sdl,44.19
2022-05-25T10:26:00,sdl,50.31
2022-05-25T10:27:00,sdl,50.61
2022-05-25T10:28:00,sdl,49.93
2022-05-25T10:29:00,sdl,50.52
2022-05-25T10:30:00,sdl,48.95
2022-05-25T10:31:00,sdl,48.92
2022-05-25T10:32:00,sdl,40.87
2022-05-25T10:33:00,sdl,41.22
2022-05-25T10:34:00,sdl,41.33
2022-05-25T10:35:00,sdl,41.23
2022-05-25T10:36:00,sdl,41.44
2022-05-25T10:37:00,sdl,56.15
2022-05-25T10:38:00,sdl,44.15
2022-05-25T10:39:00,sdl,43.18
2022-05-25T10:40:00,sdl,42.69
2022-05-25T10:41:00,sdl,51.33
2022-05-25T10:42:00,sdl,51.74
2022-05-25T10:43:00,sdl,52.12
2022-05-25T10:44:00,sdl,51.70
2022-05-25T10:45:00,sdl,52.11
2022-05-25T10:46:00,sdl,53.12
2022-05-25T10:47:00,sdl,52.09
2022-05-25T10:48:00,sdl,43.87
2022-05-25T10:49:00,sdl,43.79
2022-05-25T10:50:00,sdl,43.98
2022-05-25T10:51:00,sdl,44.19
2022-05-25T10:52:00,sdl,43.03
2022-05-25T10:53:00,sdl,44.00
2022-05-25T10:54:00,sdl,40.05
2022-05-25T10:55:00,sdl,40.12
2022-05-25T10:56:00,sdl,40.88
2022-05-25T10:57:00,sdl,48.54
2022-05-25T10:58:00,sdl,48.56
2022-05-25T10:59:00,sdl,48.98
2022-05-25T11:00:00,sdl,41.23
2022-05-25T11:01:00,sdl,40.95
2022-05-25T11:02:00,sdl,40.61
2022-05-25T11:03:00,sdl,40.83
2022-05-25T11:04:00,sdl,41.34
2022-05-25T11:05:00,sdl,40.38
2022-05-25T11:06:00,sdl,40.55
2022-05-25T11:07:00,sdl,40.50
2022-05-25T11:08:00,sdl,40.60
2022-05-25T11:09:00,sdl,51.24
2022-05-25T11:10:00,sdl,51.35
2022-05-25T11:11:00,sdl,52.54
2022-05-25T11:12:00,sdl,43.92
2022-05-25T11:13:00,sdl,43.34
2022-05-25T11:14:00,sdl,44.52
2022-05-25T11:15:00,sdl,47.12
2022-05-25T11:16:00,sdl,45.26
2022-05-25T11:17:00,sdl,47.37
2022-05-25T11:18:00,sdl,47.27
2022-05-25T11:19:00,sdl,47.70
2022-05-25T11:20:00,sdl,44.66
2022-05-25T11:21:00,sdl,51.69
2022-05-25T11:22:00,sdl,50.28
2022-05-25T11:23:00,sdl,52.25
2022-05-25T11:24:00,sdl,43.26
2022-05-25T11:25:00,sdl,41.59
2022-05-25T11:26:00,sdl,41.52
2022-05-25T11:27:00,sdl,41.87
2022-05-25T11:28:00,sdl,42.08
2022-05-25T11:29:00,sdl,41.47
2022-05-25T11:30:00,sdl,42.37
2022-05-25T11:31:00,sdl,44.76
2022-05-25T11:32:00,sdl,44.65
2022-05-25T11:33:00,sdl,49.86
2022-05-25T11:34:00,sdl,48.65
2022-05-25T11:35:00,sdl,48.60
2022-05-25T11:36:00,sdl,50.29
2022-05-25T11:37:00,sdl,50.71
2022-05-25T11:38:00,sdl,52.49
2022-05-25T11:39:00,sdl,56.06
2022-05-25T11:40:00,sdl,55.64
2022-05-25T11:41:00,sdl,53.03
2022-05-25T11:42:00,sdl,52.59
2022-05-25T11:43:00,sdl,52.59
2022-05-25T11:44:00,sdl,53.14
2022-05-25T11:45:00,sdl,63.09
2022-05-25T11:46:00,sdl,67.64
2022-05-25T11:47:00,sdl,65.57
2022-05-25T11:48:00,sdl,53.66
2022-05-25T11:49:00,sdl,54.53
2022-05-25T11:50:00,sdl,55.41
2022-05-25T11:51:00,sdl,55.76
2022-05-25T11:52:00,sdl,59.51
2022-05-25T11:53:00,sdl,58.93
2022-05-25T11:54:00,sdl,55.37
2022-05-25T11:55:00,sdl,51.09
2022-05-25T11:56:00,sdl,51.27
2022-05-25T11:57:00,sdl,60.75
2022-05-25T11:58:00,sdl,62.08
2022-05-25T11:59:00,sdl,61.88
2022-05-25T12:00:00,sdl,57.74
2022-05-25T12:01:00,sdl,58.18
2022-05-25T12:02:00,sdl,56.38
2022-05-25T12:03:00,sdl,51.98
2022-05-25T12:04:00,sdl,53.71
2022-05-25T12:05:00,sdl,54.82
2022-05-25T12:06:00,sdl,55.84
2022-05-25T12:07:00,sdl,56.95
2022-05-25T12:08:00,sdl,56.98
2022-05-25T12:09:00,sdl,64.19
2022-05-25T12:10:00,sdl,59.06
2022-05-25T12:11:00,sdl,59.16
2022-05-25T12:12:00,sdl,51.96
2022-05-25T12:13:00,sdl,59.35
2022-05-25T12:14:00,sdl,58.98
2022-05-25T12:15:00,sdl,58.09
2022-05-25T12:16:00,sdl,50.63
2022-05-25T12:17:00,sdl,51.04
2022-05-25T12:18:00,sdl,53.10
2022-05-25T12:19:00,sdl,52.96
2022-05-25T12:20:00,sdl,54.93
2022-05-25T12:21:00,sdl,66.49
2022-05-25T12:22:00,sdl,65.64
2022-05-25T12:23:00,sdl,59.95
2022-05-25T12:24:00,sdl,51.10
2022-05-25T12:25:00,sdl,54.86
2022-05-25T12:26:00,sdl,59.50
2022-05-25T12:27:00,sdl,59.08
2022-05-25T12:28:00,sdl,57.74
2022-05-25T12:29:00,sdl,56.54
2022-05-25T12:30:00,sdl,70.00
2022-05-25T12:31:00,sdl,55.78
2022-05-25T12:32:00,sdl,55.95
2022-05-25T12:33:00,sdl,64.11
2022-05-25T12:34:00,sdl,68.42
2022-05-25T12:35:00,sdl,69.24
2022-05-25T12:36:00,sdl,63.68
2022-05-25T12:37:00,sdl,62.43
2022-05-25T12:38:00,sdl,63.62
2022-05-25T12:39:00,sdl,68.72
2022-05-25T12:40:00,sdl,68.49
2022-05-25T12:41:00,sdl,66.22
2022-05-25T12:42:00,sdl,61.59
2022-05-25T12:43:00,sdl,61.88
2022-05-25T12:44:00,sdl,63.75
2022-05-25T12:45:00,sdl,68.38
2022-05-25T12:46:00,sdl,67.41
2022-05-25T12:47:00,sdl,59.90
2022-05-25T12:48:00,sdl,59.57
2022-05-25T12:49:00,sdl,59.55
2022-05-25T12:50:00,sdl,64.60
2022-05-25T12:51:00,sdl,69.93
2022-05-25T12:52:00,sdl,68.85
2022-05-25T12:53:00,sdl,66.72
2022-05-25T12:54:00,sdl,59.33
2022-05-25T12:55:00,sdl,59.94
2022-05-25T12:56:00,sdl,63.21
2022-05-25T12:57:00,sdl,65.49
2022-05-25T12:58:00,sdl,64.60
2022-05-25T12:59:00,sdl,59.64
2022-05-25T13:00:00,sdl,59.12
2022-05-25T13:01:00,sdl,61.07
2022-05-25T13:02:00,sdl,65.92
2022-05-25T13:03:00,sdl,65.49
2022-05-25T13:04:00,sdl,63.75
2022-05-25T13:05:00,sdl,59.77
2022-05-25T13:06:00,sdl,59.87
2022-05-25T13:07:00,sdl,62.76
2022-05-25T13:08:00,sdl,66.02
2022-05-25T13:09:00,sdl,64.85
2022-05-25T13:10:00,sdl,60.26
2022-05-25T13:11:00,sdl,60.94
2022-05-25T13:12:00,sdl,61.24
2022-05-25T13:13:00,sdl,66.15
2022-05-25T13:14:00,sdl,68.07
2022-05-25T13:15:00,sdl,66.11
2022-05-25T13:16:00,sdl,62.17
2022-05-25T13:17:00,sdl,62.49
2022-05-25T13:18:00,sdl,65.33
2022-05-25T13:19:00,sdl,70.93